Theta_e
342 338 338 338 336 335 335 330 327 327 331 336 335 335 331 329 329 330 329 328 329 330 330 332 332 333 334 333 330 325 323 322 323 325 327 328 327 325 327 326 324 325 325
341 338 338 339 338 337 335 332 331 332 331 334 335 334 333 333 331 329 328 327 328 329 330 331 331 332 332 331 327 323 321 321 322 325 326 326 326 325 326 324 324 324 322
342 339 338 338 337 336 334 330 330 331 332 330 328 329 330 330 329 329 327 327 326 327 330 329 331 331 331 330 327 322 321 321 321 323 323 324 324 325 325 324 324 323 322
341 339 339 338 337 336 334 330 330 331 332 332 328 328 327 329 328 326 326 326 326 327 328 329 329 328 332 329 325 322 321 320 321 322 323 323 323 324 323 323 323 323 323
340 341 339 338 337 336 332 329 329 330 331 326 329 331 329 324 327 326 326 325 325 326 326 327 328 325 332 329 325 322 321 319 321 321 321 322 322 322 322 322 322 321 321
340 339 339 338 337 333 329 328 328 330 329 330 333 331 331 328 326 325 325 324 324 325 325 325 326 324 322 330 326 322 321 318 322 320 320 321 322 321 321 321 320 319 319
340 339 339 338 335 330 328 327 328 328 328 329 331 332 331 330 327 324 324 324 324 324 324 324 324 323 322 329 328 324 321 319 321 320 320 321 321 320 319 320 319 318 318
339 338 338 337 333 330 328 326 328 328 328 330 329 328 330 330 329 324 324 324 324 324 323 321 320 321 322 324 326 325 322 321 320 321 320 320 320 317 319 318 318 317 317
339 338 338 336 334 330 328 326 327 327 328 328 328 328 328 331 329 327 326 324 324 324 324 321 317 316 320 321 322 324 323 322 318 320 320 319 320 318 319 318 317 317 317
339 338 338 337 336 333 331 327 326 327 326 326 326 326 327 330 331 328 326 325 324 323 324 323 322 316 313 314 318 320 320 321 319 320 321 320 320 318 320 318 317 317 317
338 338 337 336 337 335 334 334 329 325 326 326 325 325 326 327 329 328 326 326 325 324 323 323 323 323 317 314 314 314 316 317 319 322 321 321 320 319 319 319 318 317 317
337 336 337 337 335 335 334 334 333 331 325 326 325 327 327 326 331 330 328 327 325 324 323 323 324 324 323 320 317 320 320 318 321 322 322 321 320 320 320 320 320 320 319
338 338 337 335 338 336 334 334 333 332 330 329 329 328 328 326 326 327 327 326 325 324 323 323 323 324 324 323 323 322 321 320 320 321 320 320 320 319 320 322 321 322 321
336 337 337 337 334 337 336 335 334 333 332 331 330 330 329 329 327 326 327 326 325 325 324 324 324 325 325 323 324 323 322 321 320 320 321 320 320 320 320 322 323 322 323
333 335 336 337 337 336 334 336 335 334 333 332 332 331 330 330 328 327 326 326 326 325 325 325 325 326 326 325 324 323 323 322 321 321 321 321 321 321 320 321 323 323 323
331 332 332 333 336 337 336 333 335 336 334 334 332 332 331 330 329 328 328 327 325 324 324 324 324 324 324 324 323 323 323 322 321 320 320 321 321 321 321 321 322 323 323
325 325 326 327 330 334 337 336 334 335 336 335 334 333 332 331 330 329 329 328 327 326 324 324 324 323 323 323 323 323 323 323 322 321 321 320 320 320 321 321 321 322 323
324 324 323 322 323 326 332 336 336 335 333 336 335 335 333 333 331 330 329 329 328 327 326 325 325 324 323 323 323 323 323 323 323 323 322 322 321 320 320 321 321 320 322
321 321 321 320 320 321 327 329 334 336 335 333 333 334 334 334 332 331 330 329 329 328 327 327 326 325 325 324 323 323 323 323 323 323 323 323 323 322 321 320 321 322 320
319 318 318 318 319 319 320 327 330 333 336 336 334 332 331 332 333 331 330 330 329 329 328 327 327 326 326 325 324 324 325 325 325 324 324 324 324 323 322 321 320 321 322
316 315 316 316 317 317 318 322 329 331 333 335 336 333 331 330 331 333 331 331 330 329 329 328 327 327 327 327 326 325 325 325 325 326 326 325 325 324 324 323 322 321 321
314 314 314 315 318 317 317 319 326 330 332 333 335 333 331 330 330 330 332 331 330 330 330 329 328 328 328 327 326 324 323 324 325 325 325 325 325 325 325 324 324 323 323
311 312 313 315 317 322 320 319 322 329 330 331 333 332 331 329 328 328 329 331 330 330 329 329 328 328 327 326 326 325 323 322 320 324 325 325 326 326 325 324 323 323 323
308 310 312 312 312 315 322 324 325 328 329 329 330 330 331 330 329 329 328 328 328 328 328 328 328 328 327 326 326 326 325 325 324 324 323 324 324 324 324 323 323 322 322
306 307 308 308 308 312 317 321 325 325 326 327 326 327 327 326 325 323 325 326 326 328 328 328 327 327 327 327 326 325 323 323 323 322 324 322 322 322 322 322 322 322 322
304 304 304 304 303 306 309 312 314 315 313 316 315 315 311 311 313 315 314 315 316 318 318 320 323 324 324 324 324 324 324 322 321 320 320 321 320 320 321 322 322 322 322
Wind_Speed
13 14 14 14 11 10 9 9 11 10 9 10 12 11 10 10 9 8 9 9 11 11 8 11 11 9 13 14 13 13 14 14 14 13 12 12 12 11 12 10 13 13 12
15 14 14 12 11 8 8 8 10 8 8 10 10 11 9 9 8 9 8 6 9 9 8 11 10 9 8 11 10 11 13 14 12 11 13 13 11 10 10 12 11 12 11
17 13 14 13 11 5 4 7 10 8 8 9 8 5 7 8 9 8 8 8 8 5 7 10 10 9 4 8 8 9 11 12 11 8 5 4 10 8 9 9 10 9 10
14 10 12 12 9 4 3 5 10 9 10 9 4 6 7 6 7 6 6 6 7 8 6 7 8 9 5 5 6 8 9 12 10 10 7 6 7 7 6 7 7 7 8
11 14 11 13 9 5 4 5 8 8 8 6 6 8 6 7 9 6 6 5 4 4 4 4 6 6 6 5 4 5 8 10 9 9 3 4 3 5 5 5 5 6 6
12 11 10 11 7 4 4 5 8 9 7 5 6 5 6 7 8 7 7 5 4 2 1 1 4 2 4 2 2 3 5 7 6 5 6 3 2 5 1 3 5 5 6
12 9 10 9 5 4 4 5 7 8 10 4 6 3 5 5 5 5 6 5 4 3 3 2 2 2 1 2 1 2 3 6 5 5 3 2 2 2 1 2 2 3 4
8 8 7 7 5 4 4 5 7 7 12 8 10 7 7 8 8 5 4 6 6 4 4 3 3 4 3 4 4 4 3 4 3 5 1 5 5 1 2 3 3 3 3
8 6 6 3 5 5 5 6 7 7 13 10 9 8 7 9 9 7 6 7 8 7 7 5 4 5 6 7 7 8 8 7 5 3 4 7 5 2 4 4 5 4 5
9 7 7 6 6 5 5 7 8 8 10 11 13 12 9 8 11 10 10 10 11 8 9 8 6 7 7 9 10 10 10 9 7 5 6 10 8 4 5 6 7 7 7
8 12 8 8 9 8 7 9 8 11 11 10 12 14 13 10 12 13 11 10 11 12 12 12 11 9 9 10 10 10 11 11 8 9 9 11 11 10 7 9 9 9 10
9 11 14 13 11 11 10 11 11 12 14 14 14 13 15 13 12 12 12 12 13 13 14 15 15 13 12 12 12 12 10 10 8 11 12 14 15 14 10 11 13 13 13
13 12 11 14 16 13 14 14 12 11 15 13 14 14 15 13 15 16 15 12 14 17 18 17 17 18 17 11 9 12 12 11 12 15 14 16 16 17 14 15 15 18 18
10 11 13 13 13 19 15 15 17 16 15 16 17 18 18 17 16 16 15 15 16 13 13 15 18 16 17 15 16 16 18 16 17 17 16 18 19 20 17 17 18 18 19
6 8 11 15 16 15 22 21 19 20 20 20 18 19 21 21 19 19 19 16 16 15 15 16 17 18 18 17 18 20 21 21 21 21 21 21 22 22 21 20 21 20 21
9 10 11 14 18 20 22 20 24 20 22 22 22 21 20 22 22 21 20 20 20 19 18 17 18 19 20 20 21 20 22 24 24 24 25 25 26 26 25 24 24 24 24
9 10 11 13 17 20 24 26 22 27 19 23 23 23 23 22 24 23 21 21 20 20 20 20 19 19 20 20 20 21 22 24 26 26 26 28 28 29 28 30 28 27 28
16 17 16 14 13 20 23 24 26 25 26 21 25 21 24 26 23 23 25 23 21 20 20 20 21 22 22 22 23 24 24 24 27 28 28 28 30 33 33 30 30 29 31
4 6 10 12 15 17 21 24 23 25 24 22 28 27 25 23 25 25 23 23 22 21 21 20 21 22 23 24 24 25 24 25 26 27 30 31 32 31 32 33 33 33 32
5 7 11 15 18 18 19 20 23 25 25 23 27 26 26 28 22 25 27 25 23 23 23 23 23 22 24 25 23 24 22 23 23 28 32 34 35 35 34 35 36 37 34
7 10 14 17 18 18 19 20 21 24 25 24 27 24 24 26 24 22 26 26 24 25 27 24 23 25 25 24 20 21 24 29 28 29 29 34 37 37 34 35 36 38 39
10 11 13 13 16 17 17 19 19 22 21 22 24 22 24 23 24 26 20 24 25 23 25 27 26 22 20 18 8 6 3 8 20 24 26 30 33 33 33 33 33 35 37
11 11 12 12 12 11 13 16 17 16 15 12 10 17 18 15 14 18 25 20 19 20 20 20 24 24 18 19 20 12 3 3 3 15 19 23 26 29 31 33 34 32 34
8 8 10 11 11 10 10 7 10 12 11 11 11 3 7 10 10 10 12 16 20 20 20 19 18 19 21 15 16 25 28 19 5 3 7 16 19 25 31 27 34 33 35
6 7 9 10 12 12 11 10 6 8 9 10 10 10 9 8 7 6 5 5 4 9 15 16 17 19 21 22 17 9 14 17 20 7 9 8 14 20 24 27 30 30 34
6 7 9 11 14 14 13 14 13 13 12 13 13 14 12 9 9 9 8 8 7 8 9 10 9 11 14 15 17 18 16 8 10 6 5 12 15 20 24 26 29 29 32
Wind_Direction
134 143 146 144 134 124 115 108 103 95 85 115 120 100 93 85 85 88 89 98 84 64 67 56 54 58 70 73 75 73 68 65 64 65 74 78 73 78 75 96 90 86 84
142 149 149 145 138 125 123 120 122 113 108 107 108 104 97 84 82 80 77 80 71 69 62 61 58 54 73 78 77 70 63 58 56 64 68 80 72 74 81 86 87 88 89
131 155 151 149 142 139 143 132 140 129 136 124 108 102 91 98 100 88 73 73 65 76 73 60 50 45 91 95 77 66 60 55 59 64 18 58 83 72 78 83 89 87 94
136 147 162 154 149 154 188 142 153 141 136 131 110 117 94 115 116 105 97 99 97 100 85 60 44 44 121 104 81 68 56 40 63 49 54 68 85 80 78 78 90 90 93
137 155 167 160 164 196 161 148 162 156 152 156 155 153 134 121 135 126 105 89 96 103 91 46 34 44 62 108 72 76 53 44 52 46 68 85 115 106 90 87 109 105 102
141 164 175 172 184 186 162 164 168 173 166 164 160 171 156 142 153 146 143 137 123 122 130 63 3 350 32 80 57 61 49 45 31 46 29 55 102 84 88 97 113 113 124
140 164 183 182 195 181 169 164 162 177 182 184 170 187 185 174 168 169 169 177 175 165 165 196 246 230 242 117 298 346 359 12 53 37 27 306 289 102 126 148 131 136 136
152 162 182 202 199 198 191 180 179 192 185 181 181 188 202 203 197 191 188 196 192 198 226 251 230 227 225 222 224 252 293 324 290 333 8 273 287 181 218 241 211 191 188
157 174 183 239 218 213 213 205 200 198 200 201 199 213 219 212 214 211 205 218 216 223 235 257 250 244 241 247 250 257 266 275 276 328 280 291 258 306 221 248 245 234 221
161 174 199 200 249 268 248 228 219 221 213 219 223 230 229 209 213 215 214 223 233 233 244 257 278 270 256 253 257 262 268 268 266 250 275 261 268 275 234 249 242 237 233
187 184 196 212 215 226 236 258 251 232 226 231 221 221 231 233 226 224 226 228 245 241 248 258 260 271 269 265 266 274 272 272 258 272 261 269 263 273 231 231 237 241 241
214 213 194 201 214 216 225 238 254 254 239 237 233 233 238 233 235 249 248 248 250 241 246 248 260 267 268 271 263 263 276 272 238 263 255 263 263 270 240 234 240 237 239
208 215 227 211 200 219 217 222 243 250 246 244 239 235 238 239 231 239 238 249 251 252 250 252 262 259 260 265 264 258 264 265 255 250 250 256 261 266 249 240 243 242 236
203 211 226 233 225 208 216 227 223 230 229 240 235 234 231 234 236 237 245 248 252 256 254 256 252 263 261 254 248 253 253 256 257 256 253 255 261 266 258 243 246 248 247
219 220 220 230 241 239 219 212 228 224 229 229 235 233 231 232 236 238 237 237 237 244 243 245 245 255 253 254 259 262 261 263 258 259 259 260 262 265 265 250 248 249 250
219 227 232 232 234 239 243 235 221 231 229 232 227 229 234 233 232 235 235 235 235 235 239 242 244 247 253 257 259 261 259 260 263 262 261 261 260 265 266 265 251 249 249
251 255 247 244 238 235 241 247 246 227 231 234 233 227 227 234 236 234 237 237 238 240 238 239 241 244 248 251 257 260 260 261 261 262 262 262 263 262 261 266 264 251 248
266 258 257 261 268 245 235 242 247 248 236 231 233 231 231 230 235 236 238 239 238 238 240 242 245 246 247 248 251 254 256 261 261 261 262 261 262 264 265 262 261 262 253
301 346 310 291 283 271 256 235 240 250 246 242 234 234 228 235 235 234 237 240 241 243 244 244 246 243 246 248 249 253 252 252 257 262 263 266 267 264 263 264 262 261 263
17 319 310 302 288 283 271 254 238 238 242 242 233 242 238 232 235 235 239 242 242 244 245 245 248 248 249 253 254 257 261 260 260 262 263 264 265 266 266 266 264 262 260
358 325 309 301 293 291 282 256 238 234 237 239 241 248 246 245 235 244 242 242 241 243 247 247 251 252 253 256 264 264 263 263 266 265 264 267 267 267 267 265 268 264 265
14 342 329 326 317 296 290 273 250 237 238 241 238 244 254 251 243 240 246 245 245 245 250 251 251 258 262 256 254 255 272 268 262 262 265 266 267 271 271 272 265 265 267
16 356 348 343 333 332 298 284 267 236 239 242 244 248 243 249 253 251 246 246 248 248 254 259 255 254 258 259 251 240 273 244 310 275 256 267 267 271 276 279 277 276 270
12 6 9 3 351 339 342 299 264 231 233 248 260 168 220 232 241 249 256 254 255 258 259 260 265 260 262 252 250 245 247 253 275 284 266 265 268 272 279 286 288 288 281
38 27 30 26 27 28 21 28 46 103 92 93 88 92 90 80 85 59 51 43 3 272 272 278 281 277 273 269 263 264 260 259 263 270 295 280 282 279 276 277 279 281 281
49 45 50 52 43 50 57 55 62 76 72 70 66 70 57 53 39 39 37 38 21 20 14 12 358 327 302 298 295 294 280 280 282 245 277 295 290 294 287 279 279 284 287